Location: *
(46.4000°N, 12.6667°E)
Time: 02:58:13
(UTC+00:00)

ISS - Pass Details

Date: 05 December 2021
Orbit: 413 x 422 km, 51.6° (Epoch: 22 January)

Event Time Altitude Azimuth Distance (km) Brightness Sun altitude
Rises 16:03:31 0° 296° (WNW) 2,387 0.7 -6.9°
Reaches altitude 10° 16:05:40 10° 301° (WNW) 1,518 -0.4 -7.3°
Maximum altitude 16:09:01 55° 19° (NNE) 518 -3.5 -7.8°
Drops below altitude 10° 16:12:21 10° 99° (E) 1,507 -1.4 -8.3°
Enters shadow 16:12:54 - 101° (E) 1,726 -1.1 -8.4°
